Starlink 5617

operational
NORAD ID: 55753 Int'l Des: 2023-028 Owner: SPXS Country: US Constellation: starlink
LEOCIRCULAR

关于 Starlink 5617

正在加载描述...

实时位置

正在加载3D地球...

即将过境

高度历史

Altitude vs Time

uPlot chart will show altitude changes over time

两行轨道根数

1 55753U 23028N 25352.59392473 .00001626 00000-0 14399-3 0 9993
2 55753 69.9999 88.8952 0002982 268.5981 91.4836 14.98341966153896
Epoch: Dec 18, 2025 • Age: 25 hours

当前状态

高度 581.5 km
速度 7.57 km/s
星下点 52.01°N, 72.29°W
发射日期 Mar 3, 2023
运行时间 2.7 years
类型 internet

技术详情

分类 Payload
质量 305.00 kg
干质量 290.00 kg
总质量 305.00 kg
长度 0.20 m
直径 2.80 m
跨度 9.00 m
形状 Box + pan
制造商 SPXS
平台类型 Starlink
阶段状态 In Orbit
所有者/国家 SPXS/US

大型星座

Loading constellations...